• Join FlightAware (Why Join?)
  • Login
  • US Flag 
11:05AM EDT


 

Airport Tracker/Info


-or-


 

Live Flight TrackerFlight Track Log ✈ EJA941 ✈ 09-Oct-2013 ✈ KHOU - KCLL

Flight Track Log - Related Links

Times and Time Zones

All times are in EDT time to prevent confusion due to time zone crossing. See the EJA941 flight status page for this flight to view local times or setup timezone preferences in your user account.

Time Position Orientation Groundspeed Altitude Reporting Facility
EDT Latitude Longitude Course Direction KTS MPH feet Rate Location/Type
07:50PM 29.5978 -95.3153 277° West 231 266 2,500  Level Houston Center
07:51PM 29.5511 -95.3761 229° Southwest 271 312 3,000 300 Climbing Houston Center
07:52PM 29.5525 -95.4033 273° West 255 293 3,000  Level Houston Center
07:52PM 29.5681 -95.4703 285° West 269 310 3,000  Level Houston Center
07:53PM 29.5719 -95.4850 287° West 264 304 3,000 60 Level Houston Center
07:53PM 29.5850 -95.5428 285° West 205 236 3,100 60 Climbing Houston Center
07:54PM 29.5881 -95.5528 289° West 231 266 3,100 960 Level Houston Center
07:54PM 29.6022 -95.6150 285° West 256 295 4,100 840 Climbing Houston Center
07:55PM 29.6061 -95.6278 289° West 236 272 4,000  Descending Houston Center
07:55PM 29.6269 -95.7036 288° West 285 328 4,100  Climbing Houston Center
07:56PM 29.9302 -95.6032 277° West  Level Estimated
07:56PM 29.6436 -95.7242 313° West 281 323 4,000  Level Houston Center
07:56PM 29.6833 -95.7497 331° Northwest 280 322 4,400 960 Climbing Houston Center
07:57PM 29.7108 -95.7678 330° Northwest 278 320 5,000 480 Climbing Houston Center
07:57PM 29.7614 -95.8008 330° Northwest 286 329 5,000  Level Houston Center
07:58PM 29.7794 -95.8142 327° Northwest 284 327 5,000  Level Houston Center
07:58PM 29.8197 -95.8422 329° Northwest 281 323 5,000  Level Houston Center
07:59PM 29.8475 -95.8597 331° Northwest 282 325 5,000 480 Level Houston Center
07:59PM 29.8908 -95.8894 329° Northwest 281 323 5,500 1,500 Climbing Houston Center
08:00PM 29.9150 -95.9050 331° Northwest 281 323 6,600 3,300 Climbing Houston Center
08:01PM 29.9644 -95.9389 329° Northwest 271 312 9,200 2,820 Climbing Houston Center
08:01PM 29.9814 -95.9492 332° Northwest 275 316 9,500 780 Climbing Houston Center
08:02PM 30.0358 -95.9883 328° Northwest 321 369 10,000 480 Climbing Houston Center
08:02PM 30.0567 -96.0014 332° Northwest 314 361 10,000  Level Houston Center
08:03PM 30.1297 -96.0525 329° Northwest 397 457 10,000  Level Houston Center
08:03PM 30.1661 -96.0753 332° Northwest 385 443 10,000 -120 Level Houston Center
08:04PM 30.2142 -96.1081 329° Northwest 300 345 9,900 -780 Descending Houston Center
08:04PM 30.2414 -96.1261 330° Northwest 311 358 9,200 -1,560 Descending Houston Center
08:05PM 30.3114 -96.1744 329° Northwest 292 336 7,600 -1,800 Descending Houston Center
08:06PM 30.3547 -96.2058 328° Northwest 278 320 6,400 -1,980 Descending Houston Center
08:06PM 30.3800 -96.2203 334° Northwest 284 327 5,600 -1,920 Descending Houston Center
08:07PM 30.4372 -96.2403 343° North 280 322 4,300 -1,500 Descending Houston Center
08:07PM 30.4561 -96.2422 355° North 286 329 4,100 -240 Descending Houston Center
08:08PM 30.5117 -96.2511 352° North 272 313 4,100 -120 Level Houston Center
08:08PM 30.5319 -96.2539 353° North 273 314 4,000 -1,020 Descending Houston Center
08:09PM 30.5794 -96.2606 353° North 261 300 3,200 -1,200 Descending Houston Center
08:09PM 30.6153 -96.2667 352° North 264 304 2,800 -1,020 Descending Houston Center
08:10PM 30.6428 -96.2897 324° Northwest 207 238 2,100 -1,080 Descending Houston Center
08:10PM 30.6514 -96.3108 295° West 224 258 1,700 -780 Descending Houston Center
08:11PM 30.6469 -96.3378 259° West 165 190 1,400 -540 Descending Houston Center
08:11PM 30.6378 -96.3611 245° Southwest 184 212 1,200 -540 Descending Houston Center
08:12PM 30.6158 -96.3681 195° South 150 173 900 -420 Descending Houston Center
08:12PM 30.5992 -96.3642 169° South 168 193 800 -240 Descending Houston Center
08:14PM 30.5886 -96.3638 178° South  Level Estimated